Probability
0 1 4 7 9 8 10 18 24 21 17 11 6 2 1 0 0 0 0 0 0 0 0 0 0 0 0 0 0 0 0 0 0 0 0 0 0 0 0 0 0 0 0
0 1 3 5 7 7 11 20 25 23 19 15 10 5 1 0 0 0 0 0 0 0 0 0 0 0 0 0 0 0 0 0 0 0 0 0 0 0 0 0 0 0 0
0 0 1 3 4 5 10 18 23 23 22 21 17 9 4 1 0 0 0 0 0 0 0 0 0 0 0 0 0 0 0 0 0 0 0 0 0 0 0 0 0 0 0
0 0 1 2 3 4 6 11 17 20 23 24 22 15 9 3 0 0 0 0 0 0 0 0 0 0 0 0 0 0 0 0 0 0 0 0 0 0 0 0 0 0 0
0 0 0 1 2 2 3 6 12 17 20 22 22 18 12 6 2 0 0 0 0 0 0 0 0 0 0 0 0 0 0 0 0 0 0 0 0 0 0 0 0 0 0
0 0 0 0 1 1 1 3 7 12 15 16 16 15 11 7 3 1 0 0 0 0 0 0 0 0 0 0 0 0 0 0 0 0 0 0 0 0 0 0 0 0 0
0 0 0 0 0 0 0 1 4 7 10 11 11 11 10 8 6 2 1 0 0 0 0 0 0 0 0 0 0 0 0 0 0 0 0 0 0 0 0 0 0 0 0
0 0 0 0 0 0 0 0 1 4 8 9 9 9 9 9 7 5 2 1 1 0 0 0 0 0 0 0 0 0 0 0 0 0 0 0 0 0 0 0 0 0 0
0 0 0 0 0 0 0 0 1 3 7 9 8 8 7 7 7 6 4 3 1 0 0 0 0 0 0 0 0 0 0 0 0 0 0 0 0 0 0 0 0 0 0
0 0 0 0 0 0 0 0 0 1 4 5 5 5 5 5 5 6 5 3 1 0 0 0 0 0 0 0 0 0 0 0 0 0 0 0 0 0 0 0 0 0 0
0 0 0 0 0 0 0 0 0 0 1 1 2 2 2 2 2 3 3 1 0 0 0 0 0 0 0 0 0 0 0 0 0 0 0 0 0 0 0 0 0 0 0
0 0 0 0 0 0 0 0 0 0 0 0 0 0 0 0 0 1 1 0 0 0 0 0 0 0 0 0 0 0 0 0 0 0 0 0 0 0 0 0 0 0 0
0 0 0 0 0 0 0 0 0 0 0 0 0 0 0 0 0 0 0 0 0 0 0 0 0 0 0 0 0 0 0 0 0 0 0 0 0 0 0 0 0 0 0
0 0 0 0 0 0 0 0 0 0 0 0 0 0 0 0 0 0 0 0 0 0 0 0 0 0 0 0 0 0 0 0 0 0 0 0 0 0 0 0 0 0 0
0 0 0 0 0 0 0 0 0 0 0 0 0 0 0 0 0 0 0 0 0 0 0 0 0 0 0 0 0 0 0 0 0 0 0 0 0 0 0 0 0 0 0
0 0 0 0 0 0 0 0 0 0 0 0 0 0 0 0 0 0 0 0 0 0 0 0 0 0 0 0 0 0 0 0 0 0 0 0 0 0 0 0 0 0 0
0 0 0 0 0 0 0 0 0 0 0 0 0 0 0 0 0 0 0 0 0 0 0 0 0 0 0 0 0 0 0 0 0 0 0 0 0 0 0 0 0 0 0
0 0 0 0 0 0 0 0 0 0 0 0 0 0 0 0 0 0 0 0 0 0 0 0 0 0 0 0 0 0 0 0 0 0 0 0 0 0 0 0 0 0 0
0 0 0 0 0 0 0 0 0 0 0 0 0 0 0 0 0 0 0 0 0 0 0 0 0 0 0 0 0 0 0 0 0 0 0 0 0 0 0 0 0 0 0
0 0 0 0 0 0 0 0 0 0 0 0 0 0 0 0 0 0 0 0 0 0 0 0 0 0 0 0 0 0 0 0 0 0 0 0 0 0 0 0 0 0 0
0 0 0 0 0 0 0 0 0 0 0 0 0 0 0 0 0 0 0 0 0 0 0 0 0 0 0 0 0 0 0 0 0 0 0 0 0 0 0 0 0 0 0
0 0 0 0 0 0 0 0 0 0 0 0 0 0 0 0 0 0 0 0 0 0 0 0 0 0 0 0 0 0 0 0 0 0 0 0 0 0 0 0 0 0 0
0 0 0 0 0 0 0 0 0 0 0 0 0 0 0 0 0 0 0 0 0 0 0 0 0 0 0 0 0 0 0 0 0 0 0 0 0 0 0 0 0 0 0
0 0 0 0 0 0 0 0 0 0 0 0 0 0 0 0 0 0 0 0 0 0 0 0 0 0 0 0 0 0 0 0 0 0 0 0 0 0 0 0 0 0 0
0 0 0 0 0 0 0 0 0 0 0 0 0 0 0 0 0 0 0 0 0 0 0 0 0 0 0 0 0 0 0 0 0 0 0 0 0 0 0 0 0 0 0
0 0 0 0 0 0 0 0 0 0 0 0 0 0 0 0 0 0 0 0 0 0 0 0 0 0 0 0 0 0 0 0 0 0 0 0 0 0 0 0 0 0 0
Wind_Speed
4 2 2 2 3 4 5 6 6 6 5 4 4 4 4 4 4 4 6 7 6 7 7 5 5 6 6 7 7 4 4 4 2 1 3 3 5 5 5 5 5 6 6
3 3 2 2 3 4 5 6 6 6 6 5 4 3 3 3 4 4 4 5 6 6 6 7 6 6 6 6 6 5 3 3 4 4 2 3 4 4 5 4 5 5 3
7 5 4 3 3 3 5 5 6 5 5 5 3 2 2 2 2 2 3 4 5 6 6 7 6 6 6 6 7 7 7 5 4 5 4 4 5 3 2 3 3 3 3
7 5 5 4 4 4 3 4 4 4 4 5 5 5 5 4 4 3 3 3 4 4 4 5 6 6 6 6 7 7 7 6 5 4 5 5 3 3 3 2 2 2 3
8 7 6 5 4 3 3 3 3 3 3 4 5 5 4 3 2 2 3 3 2 3 3 3 3 4 5 6 6 6 7 6 6 5 4 5 4 4 4 5 3 1 2
8 6 4 4 3 2 2 3 3 2 2 3 3 4 5 4 3 3 3 2 2 2 2 2 3 3 3 4 5 5 6 6 6 5 5 4 4 5 5 7 5 4 2
7 7 7 6 5 3 3 3 4 3 2 3 2 3 3 3 4 3 3 2 2 2 2 2 2 3 3 3 4 4 4 5 5 5 5 5 5 3 3 4 4 3 1
6 7 7 6 5 4 4 3 3 3 2 3 2 2 2 2 2 2 2 2 2 2 1 2 2 2 2 2 2 2 3 2 4 4 4 3 3 2 3 3 3 3 2
5 6 6 5 5 4 4 4 4 3 3 2 3 2 2 2 2 1 1 1 0 0 0 1 1 1 1 1 1 1 1 1 2 2 2 2 1 1 1 2 3 3 4
4 5 5 4 4 4 3 4 4 3 2 2 2 3 3 2 2 2 2 1 1 1 1 1 1 1 1 1 1 1 1 2 1 1 2 1 1 1 1 0 1 2 3
5 4 4 4 4 4 4 4 3 3 3 3 3 4 3 3 3 3 3 2 2 2 2 2 3 3 3 3 3 3 3 3 2 2 3 3 2 2 2 2 1 1 1
4 4 4 4 4 4 3 3 3 3 3 3 3 4 3 4 4 4 4 3 3 3 3 3 4 4 4 3 3 3 3 4 4 3 4 4 3 3 3 2 2 2 1
4 4 4 4 4 3 3 3 2 3 3 3 4 4 4 4 4 4 4 4 4 4 4 4 5 4 4 4 4 5 5 5 5 4 4 4 4 4 3 3 3 2 2
4 4 4 3 3 3 3 3 2 2 3 4 4 4 3 3 3 4 4 4 4 5 5 5 5 5 5 5 5 6 6 6 6 6 5 4 4 4 4 3 3 3 3
5 5 5 4 4 3 3 3 3 3 3 4 4 3 3 4 4 4 4 4 4 5 4 5 5 4 4 4 5 5 6 6 6 6 5 5 5 6 5 3 3 3 2
7 6 6 5 5 5 4 4 4 3 4 4 4 4 4 4 4 4 4 4 5 4 5 5 5 4 4 8 9 7 5 5 6 5 5 5 6 7 8 8 6 4 2
7 8 8 7 7 6 6 6 5 4 4 4 4 4 4 4 4 4 4 4 4 4 5 4 5 5 6 9 10 10 6 5 5 4 4 3 4 6 4 6 7 6 6
6 7 6 6 5 5 5 5 5 5 5 4 4 4 4 4 4 4 4 4 3 4 3 4 4 4 6 9 10 10 6 5 5 4 3 3 2 2 3 3 3 3 3
5 4 5 5 5 5 6 6 5 5 5 5 5 5 5 5 5 4 4 3 4 3 3 3 4 4 4 7 8 8 4 4 4 3 2 2 1 2 4 3 2 2 2
3 4 4 4 5 5 6 6 6 6 6 6 5 5 5 5 5 5 4 3 3 3 3 3 3 3 2 5 7 7 3 3 2 2 2 2 1 2 2 2 1 1 2
3 4 4 4 4 5 6 6 6 6 5 5 5 5 5 5 5 4 4 4 4 4 3 3 2 2 2 3 5 5 3 3 2 1 1 2 3 3 2 1 1 3 1
3 3 3 3 3 5 6 6 6 5 5 5 5 5 5 5 5 5 4 4 5 4 3 3 2 1 1 1 2 3 3 3 2 1 1 2 3 3 3 2 3 3 1
2 2 3 3 3 4 5 6 5 5 6 6 5 5 5 4 5 5 5 4 4 3 3 3 2 1 0 1 1 2 2 2 2 1 2 3 3 3 2 3 4 2 1
1 1 2 2 3 4 4 5 5 6 6 6 5 5 5 5 4 4 4 4 4 4 4 4 3 2 1 1 1 1 1 1 1 1 2 3 3 2 2 3 2 1 1
1 2 2 3 3 3 4 5 6 7 7 6 5 5 5 5 5 4 4 5 4 5 5 4 4 4 3 5 6 3 3 2 3 1 0 0 1 1 1 1 1 1 1
1 1 2 3 3 3 4 5 6 7 7 6 6 5 5 4 4 4 3 6 6 8 9 8 7 5 6 6 7 7 7 6 5 2 1 2 2 2 3 3 3 2 2
Wind_Direction
262 259 235 199 176 172 174 182 182 178 170 171 177 182 195 193 194 198 199 198 197 196 198 205 201 197 206 212 207 201 208 217 186 203 282 273 244 238 235 228 229 234 231
261 253 237 198 187 182 177 176 182 178 180 186 179 173 168 185 194 196 200 202 202 200 201 203 203 202 209 213 206 196 192 204 179 179 212 289 306 265 238 226 229 237 230
229 232 225 212 191 193 188 184 184 183 185 180 155 130 125 120 159 193 202 206 205 205 206 207 207 205 206 215 212 203 202 213 207 197 189 207 239 283 282 237 235 235 227
220 215 213 208 202 203 189 183 180 178 181 174 170 173 183 194 197 192 196 201 203 204 207 207 208 208 209 216 215 208 209 208 216 211 223 225 201 218 279 274 246 232 235
212 206 202 197 193 185 174 170 159 161 166 170 181 183 193 200 185 172 180 198 207 208 209 211 209 214 216 220 218 212 213 215 218 208 200 221 230 225 238 264 260 256 241
204 195 181 162 156 142 135 137 136 136 143 154 163 178 188 187 181 187 192 202 210 212 219 221 220 224 225 225 227 223 220 224 225 221 205 197 198 206 216 241 242 244 236
188 180 171 167 159 148 136 128 128 127 122 127 140 164 176 177 188 195 201 202 211 222 238 228 231 233 238 234 231 224 225 224 225 225 223 220 222 203 202 229 242 236 228
186 177 172 162 154 144 131 123 121 116 103 113 121 120 137 154 171 182 182 195 216 232 249 237 235 245 248 241 227 222 224 219 221 226 221 219 226 214 208 211 215 242 240
176 163 152 147 143 137 130 127 119 107 95 100 105 94 96 115 130 131 140 159 228 249 279 258 248 254 240 230 198 202 206 196 212 219 210 205 209 192 221 218 208 218 246
150 143 139 137 131 124 112 103 107 109 100 93 93 93 80 84 93 93 85 78 54 50 60 55 59 57 53 66 95 95 89 104 89 94 103 94 82 88 77 140 212 215 223
154 144 134 127 119 110 106 105 104 102 96 91 88 87 78 75 78 76 66 58 49 49 56 62 66 64 56 58 77 76 79 89 79 72 89 81 71 80 66 62 64 51 185
148 140 136 128 122 119 114 112 110 108 107 104 98 91 83 78 75 69 59 61 60 54 60 68 71 67 62 60 74 83 80 87 86 78 83 78 77 72 61 65 64 52 43
146 140 142 147 147 141 135 129 122 118 111 108 103 93 85 82 78 72 64 62 63 60 58 66 71 70 70 72 72 82 83 81 80 80 83 81 86 78 67 68 67 56 50
169 167 171 174 168 160 157 151 141 129 123 115 111 103 96 92 88 79 72 67 69 69 66 68 70 71 72 75 78 85 86 83 76 72 75 79 90 98 93 80 75 74 68
189 189 189 187 180 174 170 162 152 140 132 126 121 118 108 99 92 85 79 75 75 76 77 79 77 78 81 85 92 89 91 89 82 71 65 69 84 99 101 100 98 92 84
205 200 195 189 190 188 182 172 165 156 141 138 136 128 119 111 104 100 94 87 81 78 78 77 78 75 83 100 102 102 91 89 89 82 68 63 60 69 74 80 84 90 96
207 202 200 198 196 191 182 180 172 154 147 147 142 138 134 127 123 119 106 98 90 86 82 78 79 79 89 97 101 103 96 91 88 85 76 68 62 61 59 63 58 47 50
208 203 196 192 185 173 167 160 153 154 155 154 152 151 147 140 135 127 120 113 103 97 92 86 84 85 92 98 101 102 92 87 81 80 83 80 52 66 92 82 59 38 23
198 192 181 171 161 164 162 154 156 159 162 168 169 165 160 155 151 146 139 125 116 108 99 95 92 90 94 103 109 109 98 89 76 65 68 81 53 54 84 92 73 28 352
142 145 139 138 152 161 155 157 166 170 180 180 175 167 164 163 161 155 144 132 129 126 118 104 97 101 103 113 117 118 110 99 83 56 39 40 30 9 67 117 124 305 293
105 121 132 146 162 157 156 167 175 188 184 167 161 161 163 162 158 148 142 139 135 130 125 119 102 92 102 116 121 127 122 130 125 96 7 325 340 342 346 43 191 257 275
98 117 132 145 153 161 164 175 190 183 159 157 160 161 160 162 156 149 146 146 146 145 144 140 131 79 43 97 139 140 146 149 146 177 252 283 318 327 329 331 291 308 25
108 124 144 151 166 177 177 187 188 163 158 160 164 163 159 159 157 160 160 158 161 163 169 172 179 193 213 270 204 174 169 166 159 211 255 292 320 337 339 319 320 355 66
155 152 156 178 197 196 195 194 174 163 163 169 170 166 165 166 166 171 173 175 180 182 185 191 197 203 217 232 231 221 216 220 223 251 288 319 335 340 317 319 339 339 245
218 184 196 212 218 203 201 189 174 166 171 175 174 173 175 174 176 182 192 192 199 194 193 199 194 194 217 227 215 199 201 199 211 197 170 323 314 306 300 291 279 272 283
244 230 227 228 227 211 206 193 181 175 175 180 182 181 179 178 178 181 197 215 210 217 219 212 205 216 223 229 228 231 232 235 238 224 206 240 247 255 263 270 273 261 255